THORAD DELTA 1 DEB, 8152

Orbit data source: Space-Track

THORAD DELTA 1 DEB, 8152 is space debris in SSO originally from a launch on Fri, 15 Nov 1974 UTC launched from the Air Force Western Test Range (AFWTR). Debris objects in space refer to the collection of defunct objects orbiting the Earth. Examples of debris include non-operational satellites, rocket bodies, and fragments generated from explosions, collisions, or faulty payload assembly.

Loading next visibility...
Identifier
8152, 1974-089S
Orbit
SSO
Country
Flag of USUS
Related business
Manufacturer
Unknown
Mission
Spacecraft
Bus & Motor
Unknown
Mass
Unknown
Launch date (UTC)
1974-11-15 (51 years ago)
Launch vehicle
Unknown
Launch site
Air Force Western Test Range (AFWTR)
Object type
Payload
Rocket body
Debris
Shape & HBR
Unknown shape, 0.1 m
Radar Cross Section
Small (<0.1 m²)

Expand to show TLE details & history
Last TLE update: 1 day ago

TLE from 1 day ago
0 THORAD DELTA 1 DEB
1 08152U 74089S   25352.95287906  .00000026  00000-0  41695-3 0  9993
2 08152 101.8500 354.6728 0059805 343.0577  72.0406 12.60118487347982
Epoch: 2025-12-18T22:52Z
TLE epoch observation values (Epoch: 2025-12-18T22:52:08.750Z)
Latitude
54.09268°
Longitude
-92.92374°
Altitude
1,417.009 km
Speed
7.164 km/s
True Right ascension
22h 31m 39s
True Declination
53° 56' 35"
Sunlit
Object was in daylight at epoch
Visualization orbit readout
Latitude
Unknown
Longitude
Unknown
Altitude
Unknown
Speed
Unknown
Apparent Right ascension
Unknown
Apparent Declination
Unknown
Sunlit
N/A
Visualization observer readout
Local Sidereal Time
01:23:55
Azimuth
Unknown
Elevation
Unknown
Doppler factor
Unknown
Orbital elements
Apogee altitude
1,466.632 km
Perigee altitude
1,373.358 km
Semi-major axis
7,798.132 km
Eccentricity
0.00598
Inclination
101.85°
RAAN
354.6728°
Arg. of periapsis
343.0577°
True anomaly
72.69401°
Mean anomaly
72.0406°
Eccentric anomaly
72.36716°
Mean motion
3.15179 °/min
Orbital period
114.22 mins
BSTAR
0.00041695
Loading maneuver chart data...
Computing Atmospheric mass density...

Documentation

Showing up to 5 results
|